Home > Time Zones > World Clock > Weather > India > Sikar > Past weeks

Flag for India Weather past 2 weeks in Sikar, Rajasthan, India

Now
52 °F

Clear.


Feels Like: 51 °F
Forecast: 42 / 68 °F
Wind: 5 mph from Northeast

Location: Jaipur / Sanganer

Current Time: Dec 27, 2014 at 3:49:45 AM

Latest Report: Dec 27, 2014 at 1:00 AM


Visibility: 1 mi

Pressure: 30.04 "Hg

Humidity: 54%

Dew point: 36 °F

Location of SikarLocation

Historic Weather in Sikar — Graph

°F

Sikar temperature yesterday

Maximum temperature yesterday: 72 °F (at 2:00 PM)
Minimum temperature yesterday: 45 °F (at 5:30 AM)
Average temperature yesterday: 56 °F

Past Weeks' High & Low Weather Summary

 TemperatureHumidityPressure
High73 °F (Dec 19, 2:00 PM)100% (Dec 14, 8:00 AM)30.24 "Hg (Dec 14, 8:00 AM)
Low43 °F (Dec 21, 7:00 AM)20% (Dec 12, 12:00 PM)29.71 "Hg (Dec 12, 3:00 PM)
Average58 °F66%30.09 "Hg
* Reported Dec 12 1:00 AM — Dec 27 1:00 AM, Sikar, Weather by CustomWeather, © 2014

Note: Actual official high and low records may vary slightly from our data, if they occured in-between our weather recording intervals... More about our weather records

Advertising

Sikar weather history for previous 24 hours

 ConditionsComfort  
Time TempWeatherWind HumidityBarometerVisibility
1:00 AM
Dec 27
52 °FClear.5 mph54%30.04 "Hg1 mi
12:00 AM52 °FClear.No wind54%30.04 "Hg1 mi
11:00 PM
Dec 26
52 °FClear.1 mph54%30.07 "Hg1 mi
10:00 PM55 °FClear.2 mph47%30.07 "Hg1 mi
9:00 PM61 °FClear.3 mph36%30.07 "Hg1 mi
8:00 PM61 °FHaze.3 mph39%30.07 "Hg1 mi
7:00 PM66 °FHaze.3 mph30%30.04 "Hg1 mi
6:00 PM68 °FHaze.3 mph24%30.04 "Hg2 mi
4:00 PM72 °FHaze.5 mph20%30.04 "Hg2 mi
3:00 PM72 °FHaze.7 mph22%30.07 "Hg2 mi
2:00 PM72 °FHaze.7 mph20%30.07 "Hg2 mi
11:00 AM68 °FHaze.7 mph21%30.15 "Hg1 mi
10:00 AM63 °FHaze.6 mph30%30.15 "Hg1 mi
8:00 AM46 °FFog.2 mph87%30.12 "Hg1 mi
7:00 AM45 °FFog.1 mph100%30.07 "Hg1 mi
6:00 AM45 °FFog.No wind100%30.07 "Hg1 mi
5:30 AM45 °FFog.No wind100%30.07 "Hg1 mi
5:00 AM48 °FFog.No wind87%30.07 "Hg1 mi
4:00 AM46 °FFog.No wind87%30.07 "Hg1 mi
3:00 AM48 °FCool.N/A87%30.09 "HgN/A
Weather by CustomWeather, © 2014

See weather overviewHow to use our weather pages